Probability
0 0 0 0 0 0 0 0 0 0 0 0 0 0 0 0 0 0 0 0 0 0 0 0 1 2 3 2 2 3 3 3 3 1 0 0 0 0 0 0 0 0 0
0 0 0 0 0 0 0 0 0 0 0 0 0 0 0 0 0 0 0 0 0 0 0 0 0 1 2 1 1 2 2 3 3 2 1 0 0 0 0 0 0 0 0
0 0 0 0 0 0 0 0 0 0 0 0 0 0 0 0 0 0 0 0 0 0 0 0 0 0 1 1 0 1 1 1 2 2 1 0 0 0 0 0 0 0 0
0 0 0 0 0 0 0 0 0 0 0 0 0 0 0 0 0 0 0 0 0 0 0 0 0 0 1 2 1 0 0 0 1 1 1 0 0 0 0 0 0 0 0
0 0 0 0 0 0 0 0 0 0 0 0 0 0 0 0 0 0 0 0 0 0 0 0 0 0 1 2 1 0 0 0 0 0 0 0 0 0 0 0 0 0 0
0 0 0 0 0 0 0 0 0 0 0 0 0 0 0 0 0 0 0 0 0 0 0 0 0 0 0 1 1 0 0 0 0 0 0 0 0 0 0 0 0 0 0
0 0 0 0 0 0 0 0 0 0 0 0 0 0 0 0 0 0 0 0 0 0 0 0 0 0 0 0 0 0 0 0 0 0 0 0 0 0 0 0 0 0 0
0 0 0 0 0 0 0 0 0 0 0 0 0 0 0 0 0 0 0 0 0 0 0 0 0 0 0 0 0 0 0 0 0 0 0 0 0 0 0 0 0 0 0
0 0 0 0 0 0 0 0 0 0 0 0 0 0 0 0 0 0 0 0 0 0 0 0 0 0 0 0 0 0 0 0 0 0 0 0 0 0 0 0 0 0 0
0 0 0 0 0 0 0 0 0 0 0 0 0 0 0 0 0 0 0 0 0 0 0 0 0 0 0 0 0 0 0 0 0 0 0 0 0 0 0 0 1 0 0
0 0 0 0 0 0 0 0 0 0 0 0 0 0 0 0 0 0 0 0 0 0 0 0 0 0 0 0 0 0 0 0 0 0 0 0 0 0 0 0 0 0 0
0 0 0 0 0 0 0 0 0 0 0 0 0 0 0 0 0 0 0 0 0 0 0 0 0 0 0 0 0 0 0 0 0 0 0 0 0 0 0 0 0 0 0
0 0 0 0 0 0 0 0 0 0 0 0 0 0 0 0 0 0 0 0 0 0 0 0 0 0 0 0 0 0 0 0 0 0 0 0 0 0 0 0 0 0 0
0 0 0 0 0 0 0 0 0 0 0 0 0 0 0 0 0 0 0 0 0 0 0 0 0 0 0 0 0 0 0 0 0 0 0 0 0 0 0 0 0 0 0
0 0 0 0 0 0 0 0 0 0 0 0 0 0 0 0 0 0 0 0 0 0 0 0 0 0 0 0 0 0 0 0 0 0 0 0 0 0 0 0 0 0 0
0 0 0 0 0 0 0 0 0 0 0 0 0 0 0 0 0 0 0 0 0 0 0 0 0 0 0 0 0 0 0 0 0 0 0 0 0 0 0 0 0 0 0
0 0 0 0 0 0 0 0 0 0 0 0 0 0 0 0 0 0 0 0 0 0 0 0 0 0 0 0 0 0 0 0 0 0 0 0 0 0 0 0 0 0 0
0 0 0 0 0 0 0 0 0 0 0 0 0 0 0 0 0 0 0 0 0 0 0 0 0 0 0 0 0 0 0 0 0 0 0 0 0 0 0 0 0 0 0
0 0 0 0 0 0 0 0 0 0 0 0 0 0 0 0 0 0 0 0 0 0 0 0 0 0 0 0 0 0 0 0 0 0 0 0 0 0 0 0 0 0 0
0 0 0 0 0 0 0 0 0 0 0 0 0 0 0 0 0 0 0 0 0 0 0 0 0 0 0 0 0 0 0 0 0 0 0 0 0 0 0 0 0 0 0
0 0 0 0 0 0 0 0 0 0 0 0 0 0 0 0 0 0 0 0 0 0 0 0 0 0 0 0 0 0 0 0 0 0 0 0 0 0 0 0 0 0 0
0 0 0 0 0 0 0 0 0 0 0 0 0 0 0 0 0 0 0 0 0 0 0 0 0 0 0 0 0 0 0 0 0 0 0 0 0 0 0 0 0 0 0
0 0 0 0 0 0 0 0 0 0 0 0 0 0 0 0 0 0 0 0 0 0 0 0 0 0 0 0 0 0 0 0 0 0 0 0 0 0 0 0 0 0 0
0 0 0 0 0 0 0 0 0 0 0 0 0 0 0 0 0 0 0 0 0 0 0 0 0 0 0 0 0 0 0 0 0 0 0 0 0 0 0 0 0 0 0
0 0 0 0 0 0 0 0 0 0 0 0 0 0 0 0 0 0 0 0 0 0 0 0 0 0 0 0 0 0 0 0 0 0 0 0 0 0 0 0 0 0 0
0 0 0 0 0 0 0 0 0 0 0 0 0 0 0 0 0 0 0 0 0 0 0 0 0 0 0 0 0 0 0 0 0 0 0 0 0 0 0 0 0 0 0
Wind_Speed
3 3 2 2 2 2 2 2 3 3 3 3 3 4 3 3 3 3 3 6 6 5 4 4 3 4 4 3 3 3 3 3 2 2 3 4 4 4 4 4 4 4 4
3 3 3 2 2 2 2 2 2 2 2 2 3 3 3 3 3 3 3 4 6 6 4 3 3 3 4 3 3 3 2 2 2 2 2 3 3 3 3 4 3 3 3
3 3 3 3 3 2 2 2 2 2 2 3 3 3 3 3 3 3 3 3 3 6 6 4 4 3 3 3 3 3 3 3 2 1 1 2 3 3 3 3 3 3 2
3 3 3 3 3 2 2 2 2 2 2 2 2 2 2 2 3 3 3 3 3 4 6 7 6 4 3 3 3 2 3 3 3 2 2 1 1 3 3 3 3 3 2
3 3 2 2 3 3 2 2 2 1 1 2 2 2 2 2 2 2 3 3 3 4 4 6 8 7 6 5 3 2 2 2 2 2 2 1 1 2 3 3 4 4 3
3 3 2 3 3 3 3 3 2 2 1 1 2 2 2 1 1 2 2 2 3 4 4 4 4 6 9 8 6 4 2 1 1 2 1 1 1 1 2 3 3 4 4
3 3 2 2 3 2 2 3 2 1 2 2 2 2 2 1 2 2 2 2 2 3 3 3 3 3 4 7 7 7 5 3 1 1 1 2 2 2 3 4 4 5 5
3 2 2 2 2 2 3 3 3 1 1 2 1 1 2 2 2 2 1 1 2 2 2 3 3 3 3 2 5 7 7 5 3 3 2 3 3 4 4 4 5 5 5
3 2 2 2 2 2 2 2 2 2 1 1 2 1 1 1 2 2 2 1 2 1 1 2 3 3 3 2 3 5 7 6 5 4 4 4 4 5 6 5 5 4 4
2 2 2 2 2 2 2 2 2 1 1 1 1 1 0 1 1 2 2 1 2 2 2 2 3 3 3 2 3 6 7 7 6 5 5 5 5 6 6 6 5 5 5
2 2 1 1 1 1 1 1 2 2 1 0 0 1 1 1 0 1 3 3 2 1 2 2 2 2 2 2 2 5 7 7 7 7 6 5 5 6 6 6 6 6 5
2 2 2 1 1 1 1 1 1 1 1 1 1 1 1 1 1 1 2 3 3 3 3 2 2 2 2 2 4 8 8 7 7 8 7 6 5 6 6 6 6 6 6
2 2 2 1 1 2 1 1 1 1 1 1 1 1 1 2 1 2 2 3 3 3 2 1 1 1 2 2 3 7 7 8 8 8 8 7 6 6 6 6 6 7 7
2 2 2 2 2 2 2 1 1 2 1 2 2 2 2 2 2 2 2 2 3 3 2 3 1 1 2 2 5 7 4 8 9 8 8 8 8 6 6 6 7 7 7
2 1 1 2 2 2 2 2 1 2 2 2 2 2 2 2 2 2 2 2 3 3 4 2 2 2 3 3 6 4 4 8 9 9 9 8 8 7 6 6 7 7 7
2 2 2 2 2 2 2 2 2 2 2 2 2 2 3 2 2 2 2 2 3 4 4 2 3 3 4 4 7 4 4 9 9 9 9 9 8 8 7 7 7 7 8
2 2 2 2 2 2 2 2 2 2 3 3 3 3 3 3 3 2 2 3 3 3 6 5 3 4 4 4 5 4 4 4 5 9 10 9 9 9 8 8 8 8 8
2 2 2 2 2 2 2 2 3 3 3 3 4 4 4 3 4 3 3 4 4 4 5 7 5 4 4 4 5 5 5 5 4 8 10 10 10 9 9 9 9 8 8
2 2 2 2 3 3 3 4 4 4 4 4 5 4 5 5 5 4 4 4 4 4 4 5 6 4 4 4 4 5 5 4 5 6 8 9 9 10 10 9 9 8 8
2 2 3 3 3 4 4 4 4 4 5 5 5 5 5 5 6 6 5 5 5 5 5 5 5 4 4 3 3 4 4 3 4 5 6 7 9 10 10 10 9 9 9
3 2 2 3 3 4 4 5 5 5 5 6 6 6 6 8 9 8 6 6 5 5 5 5 5 5 4 3 3 3 5 4 4 4 4 4 5 5 5 8 9 9 10
2 2 3 4 4 4 8 10 8 5 6 6 6 6 6 8 10 12 13 12 10 8 7 6 6 6 6 5 4 4 4 4 5 2 3 5 4 5 5 5 9 11 11
2 3 4 4 5 7 10 11 11 7 6 5 6 6 6 6 8 6 9 12 12 14 14 9 8 7 6 5 5 6 5 6 6 4 4 6 4 6 5 6 11 12 12
3 4 4 5 5 7 11 11 11 7 5 5 6 6 7 6 7 8 8 8 8 9 10 8 8 8 8 7 7 7 7 6 6 5 4 6 4 5 5 5 10 12 12
4 4 5 5 5 8 11 11 11 4 5 6 7 7 7 7 12 14 10 8 9 8 11 14 14 12 13 12 8 4 4 5 6 4 3 4 4 5 5 5 7 10 11
4 4 5 5 6 7 11 12 11 4 5 6 6 7 10 11 13 14 9 8 9 8 7 7 8 9 8 7 10 6 5 5 5 4 3 3 3 3 5 4 3 4 6
Wind_Direction
29 23 24 27 23 23 31 28 29 24 25 25 28 29 17 7 6 3 349 6 15 23 29 40 50 64 67 76 84 97 93 88 92 117 135 133 129 124 124 122 117 114 109
35 26 20 23 19 14 15 29 28 26 22 23 24 20 12 10 13 13 1 3 16 19 19 28 39 54 54 62 73 79 77 87 91 89 139 148 146 141 141 138 133 128 120
34 32 23 19 9 3 15 33 33 30 31 25 16 12 16 13 14 21 19 18 15 18 18 22 21 35 39 44 60 69 61 61 60 63 112 148 157 159 162 160 155 159 149
33 37 29 14 3 4 20 33 34 30 28 18 6 1 7 8 14 21 31 29 31 23 18 26 22 23 25 26 36 54 62 54 54 51 53 87 160 179 178 181 182 184 186
30 41 32 11 10 19 20 22 23 36 23 8 358 359 1 6 6 26 36 34 36 33 21 20 23 24 21 15 7 16 39 45 44 41 28 37 122 189 199 201 204 205 204
27 45 37 18 19 29 20 16 15 20 29 2 5 4 347 356 17 31 28 26 29 32 26 21 17 14 20 20 11 1 2 21 31 22 9 352 302 252 215 218 220 218 219
21 46 36 26 27 35 25 18 15 20 25 19 37 5 350 12 34 29 17 23 23 24 25 21 17 13 3 8 10 7 0 344 324 317 323 322 303 290 261 236 233 229 226
10 38 44 28 22 28 35 29 27 26 22 26 43 41 340 338 353 360 2 17 5 15 13 8 10 6 359 349 351 5 3 353 326 294 289 291 294 279 276 266 246 241 237
358 14 38 37 22 28 30 21 26 50 23 2 35 84 134 264 312 319 346 351 353 0 345 340 349 343 343 344 334 356 1 353 334 311 291 283 288 286 270 270 265 259 251
351 14 36 38 25 20 18 357 17 12 57 14 352 8 20 173 236 309 310 331 351 356 342 335 324 321 332 333 340 352 354 354 338 314 302 297 296 291 288 279 278 267 262
347 3 20 33 15 1 352 352 358 5 10 332 328 315 317 344 185 225 284 314 332 319 325 316 308 316 334 335 328 344 348 343 337 325 307 299 300 303 303 302 292 279 271
332 348 350 359 339 324 309 309 324 349 341 304 283 249 226 231 232 230 255 287 296 300 311 302 305 313 328 337 343 351 344 336 330 324 316 305 299 300 299 300 301 303 288
308 305 317 314 307 298 299 304 297 299 286 286 272 266 259 255 248 242 253 272 283 293 289 281 290 315 325 332 326 341 339 338 334 326 317 311 304 302 302 298 296 296 300
271 278 285 294 299 298 301 299 289 280 278 268 273 270 269 266 262 253 241 254 286 288 272 270 297 299 322 317 323 334 320 328 328 322 316 312 309 298 295 296 295 296 296
279 270 272 280 291 297 289 275 269 275 275 267 264 266 266 269 263 259 259 237 233 265 270 263 279 305 312 306 315 309 298 311 315 315 314 310 305 297 286 286 288 291 290
271 262 267 273 286 289 288 283 281 272 264 272 267 260 263 259 260 261 259 259 245 245 262 262 273 296 305 303 309 305 296 309 308 308 304 305 303 294 281 276 279 282 284
258 255 260 266 274 280 280 273 276 277 269 274 275 264 264 263 257 253 251 255 258 251 261 275 277 291 287 294 301 296 290 283 286 299 299 299 298 291 282 272 271 274 278
251 256 258 263 269 274 270 263 269 273 267 268 271 268 266 262 259 252 246 249 254 254 256 273 281 281 278 282 287 289 293 292 283 294 295 292 291 291 286 273 268 268 271
255 262 261 262 269 272 269 266 261 263 260 260 260 260 262 254 256 254 250 250 254 258 256 261 273 274 277 281 287 289 286 283 291 291 291 289 292 294 288 279 268 266 267
246 247 260 262 266 268 269 266 265 265 262 262 261 258 258 253 250 249 252 250 252 255 256 261 267 268 269 270 265 278 289 283 286 290 286 289 290 290 287 282 272 266 267
264 260 266 270 270 264 259 258 257 259 260 260 261 259 258 259 258 256 252 245 244 251 254 257 265 266 262 264 263 270 278 287 279 272 278 276 279 269 268 273 269 264 264
269 263 259 262 268 271 273 276 275 263 264 263 264 263 260 264 267 270 272 268 258 252 250 252 258 258 256 250 258 265 277 288 283 263 273 276 263 260 257 251 267 267 266
261 262 263 261 264 268 275 277 278 277 264 260 262 263 266 264 271 265 271 275 275 271 262 254 252 253 251 243 242 254 255 261 268 273 277 273 259 263 258 262 271 269 263
253 256 262 261 265 269 276 278 281 281 269 262 261 260 260 262 263 264 259 261 262 265 265 263 250 247 246 242 238 242 252 263 269 260 252 266 263 266 270 257 263 262 262
260 260 260 258 262 271 276 279 283 272 268 265 262 260 260 258 265 269 263 259 262 265 270 268 265 263 263 263 258 252 251 262 273 269 237 254 269 281 273 258 254 255 258
266 269 273 265 261 264 271 277 282 269 267 269 266 262 267 268 270 271 259 251 257 260 261 266 268 273 269 264 264 247 237 249 266 271 235 241 267 288 286 265 252 245 247